Location: Newark
(44.6768°N, 22.5302°E)
Time: 10:36:41
(UTC+00:00)

CAS-6 - Pass Details

Date: 29 June 2022
Orbit: 613 x 634 km, 97.9° (Epoch: 14 August)

Event Time Altitude Azimuth Distance (km) Brightness Sun altitude
Exits shadow 21:01:37 36° 195° (SSW) 1,003 ? -19.0°
Maximum altitude 21:03:13 60° 259° (W) 720 ? -19.1°
Drops below altitude 10° 21:07:32 10° 340° (NNW) 2,006 ? -19.3°
Sets 21:09:46 0° 344° (NNW) 2,914 ? -19.5°
